Regional Weather Roundup
Issued by NWS

Home | Current Version | Previous Version | Text Only | Print | Product List | Glossary Off
Versions: 1 2 3 4 5 6 7 8 9 10 11 12 13 14 15 16 17 18 19 20 21 22 23 24 25 26 27 28 29 30 31 32 33 34 35 36 37 38 39 40 41 42 43 44 45 46 47 48 49 50

000
ASUS43 KMKX 071821
RWRWI

WISCONSIN REGIONAL WEATHER ROUNDUP
NATIONAL WEATHER SERVICE MILWAUKEE/SULLIVAN WI
100 PM CDT TUE JUL 07 2015

NOTE: "FAIR" INDICATES FEW OR NO CLOUDS BELOW 12,000 FEET WITH NO
SIGNIFICANT WEATHER AND/OR OBSTRUCTIONS TO VISIBILITY.

WIZ001-002-006>008-014>016-023>028-071900-
NORTHWEST WISCONSIN

CITY           SKY/WX    TMP DP  RH WIND       PRES   REMARKS
SUPERIOR ARPT  SUNNY     67  49  51 S3        30.13F
6HR MIN TEMP:  55; 6HR MAX TEMP:  67;

ASHLAND        SUNNY     66  47  50 NE9       30.14F
6HR MIN TEMP:  54; 6HR MAX TEMP:  66;

HAYWARD        MOSUNNY   65  44  46 N9        30.14F
6HR MIN TEMP:  54; 6HR MAX TEMP:  65;

SIREN          MOSUNNY   66  43  43 N6        30.15F
6HR MIN TEMP:  53; 6HR MAX TEMP:  67;

CUMBERLAND     MOSUNNY   63  43  48 N15       30.14F
RICE LAKE      PTSUNNY   65  47  51 N14       30.16S
6HR MIN TEMP:  53; 6HR MAX TEMP:  66;

CHETEK         MOSUNNY   66  48  52 N6        30.13F
6HR MIN TEMP:  53; 6HR MAX TEMP:  66;

LADYSMITH      MOSUNNY   65  47  50 NW12      30.15S
6HR MIN TEMP:  51; 6HR MAX TEMP:  67;

EAU CLAIRE     PTSUNNY   67  48  50 N10       30.12F
6HR MIN TEMP:  52; 6HR MAX TEMP:  68;

MENOMONIE      PTSUNNY   66  46  47 N9G26     30.14S
6HR MIN TEMP:  54; 6HR MAX TEMP:  67;

NEW RICHMOND   PTSUNNY   66  47  50 NE9       30.16S
6HR MIN TEMP:  52; 6HR MAX TEMP:  66;

OSCEOLA        PTSUNNY   65  48  55 N9        30.18F
6HR MIN TEMP:  52; 6HR MAX TEMP:  65;

$$

WIZ003>005-009-010-017-018-071900-
NORTH CENTRAL WISCONSIN

CITY           SKY/WX    TMP DP  RH WIND       PRES   REMARKS
MANITOWISH WTR PTSUNNY   60  44  55 N9        30.12S
6HR MIN TEMP:  51; 6HR MAX TEMP:  62;

ARBOR VITAE    PTSUNNY   62  45  54 N10G17    30.11S
6HR MIN TEMP:  52; 6HR MAX TEMP:  63;

WOODRUFF       PTSUNNY   62  45  54 N10G17    30.11S
6HR MIN TEMP:  52; 6HR MAX TEMP:  63;

RHINELANDER    CLOUDY    61  44  53 N7        30.11S
6HR MIN TEMP:  51; 6HR MAX TEMP:  63;

EAGLE RIVER    PTSUNNY   63  43  48 N12G18    30.10S
LAND O LAKES   PTSUNNY   61  43  51 N10G18    30.12S
6HR MIN TEMP:  51; 6HR MAX TEMP:  62; 6HR PCP:  0.01;

PHILLIPS       MOSUNNY   64  46  53 N7G17     30.12R
6HR MIN TEMP:  47; 6HR MAX TEMP:  64;

TOMAHAWK       PTSUNNY   62  46  56 N7        30.12R
6HR MIN TEMP:  49; 6HR MAX TEMP:  63;

MEDFORD        PTSUNNY   65  47  52 N7        30.11F
6HR MIN TEMP:  50; 6HR MAX TEMP:  65;

MERRILL        MOSUNNY   65  47  52 NE8G16    30.11S
6HR MIN TEMP:  51; 6HR MAX TEMP:  65;

$$

WIZ029-030-035-036-043>047-071900-
CENTRAL WISCONSIN

CITY           SKY/WX    TMP DP  RH WIND       PRES   REMARKS
WAUSAU         PTSUNNY   67  45  45 N10G17    30.08S
6HR MIN TEMP:  54; 6HR MAX TEMP:  67;

MOSINEE        CLOUDY    63  46  55 N10       30.11S
MARSHFIELD     CLOUDY    65  45  48 N8        30.11S
6HR MIN TEMP:  54; 6HR MAX TEMP:  65;

STEVENS POINT  PTSUNNY   62  44  52 N10       30.10S
6HR MIN TEMP:  52; 6HR MAX TEMP:  62;

WAUPACA        PTSUNNY   69  46  44 N8        30.08S
6HR MIN TEMP:  59; 6HR MAX TEMP:  69;

WAUTOMA        MOSUNNY   66  46  48 N10       30.09R
6HR MIN TEMP:  58; 6HR MAX TEMP:  67;

WISC RAPIDS    CLOUDY    64  43  46 N10       30.11S
6HR MIN TEMP:  55; 6HR MAX TEMP:  65;

CAMP DOUGLAS   PTSUNNY   64  52  63 NW7       30.10S
$$

WIZ011>013-019>022-031-037>040-048>050-071900-
NORTHEAST WISCONSIN

CITY           SKY/WX    TMP DP  RH WIND       PRES   REMARKS
ANTIGO         PTSUNNY   63  48  58 NE9G17    30.09S
SHAWANO        PTSUNNY   67  47  49 NW9       30.06S
6HR MIN TEMP:  59; 6HR MAX TEMP:  69; 6HR PCP:  0.03;

OCONTO         CLOUDY    65  49  55 NE10      30.05S
6HR MIN TEMP:  56; 6HR MAX TEMP:  65;

STURGEON BAY   CLOUDY    63  48  59 N13G20    30.07S
6HR MIN TEMP:  55; 6HR MAX TEMP:  63;

GREEN BAY      PTSUNNY   67  48  50 NW14      30.06S
6HR MIN TEMP:  58; 6HR MAX TEMP:  69;

MANITOWOC      CLOUDY    64  48  56 MISG      30.05R
6HR MIN TEMP:  58; 6HR MAX TEMP:  65;

APPLETON       PTSUNNY   64  45  48 NW12G18   30.07R
CLINTONVILLE   MOSUNNY   68  43  40 N14       30.06F
OSHKOSH        PTSUNNY   67  48  50 NW13G22   30.06R
6HR MIN TEMP:  60; 6HR MAX TEMP:  67;

$$

WIZ032>034-041-042-053>061-071900-
SOUTHWEST WISCONSIN

CITY           SKY/WX    TMP DP  RH WIND       PRES   REMARKS
LA CROSSE      CLOUDY    65  45  48 N13G21    30.12S
6HR MIN TEMP:  58; 6HR MAX TEMP:  67;

SPARTA         CLOUDY    65  44  47 NW7       30.12S
6HR MIN TEMP:  55; 6HR MAX TEMP:  65;

VIROQUA        CLOUDY    62  48  61 N12G17    30.12S
6HR MIN TEMP:  55; 6HR MAX TEMP:  63;

BOSCOBEL       CLOUDY    68  49  50 N9        30.09S
6HR MIN TEMP:  59; 6HR MAX TEMP:  70;

PRAIRIE DU CHI CLOUDY    65  46  51 NW13      30.09S
6HR MIN TEMP:  61; 6HR MAX TEMP:  67;

PLATTEVILLE    PTSUNNY   66  53  64 N13       30.07F
6HR MIN TEMP:  58; 6HR MAX TEMP:  67;

$$

WIZ056-057-062-063-064-067-068-071900-
SOUTH CENTRAL WISCONSIN

CITY           SKY/WX    TMP DP  RH WIND       PRES   REMARKS
REEDSBURG      CLOUDY    66  50  56 N14       30.08S
6HR MIN TEMP:  57; 6HR MAX TEMP:  67;

BARABOO/DELLS  CLOUDY    64  47  52 N9G16     30.08S
6HR MIN TEMP:  57; 6HR MAX TEMP:  64;

LONE ROCK      CLOUDY    66  50  56 N10       30.08S
6HR MIN TEMP:  59; 6HR MAX TEMP:  69;

MINERAL POINT  PTSUNNY   68  52  56 N12       30.07F
MADISON        PTSUNNY   66  53  63 N9        30.05S
6HR MIN TEMP:  59; 6HR MAX TEMP:  68;

MIDDLETON      CLOUDY    67  50  54 N12G17    30.07R
6HR MIN TEMP:  60; 6HR MAX TEMP:  69;

WATERTOWN      CLOUDY    65  52  61 N12G17    30.05S
6HR MIN TEMP:  60; 6HR MAX TEMP:  67;

MONROE         CLOUDY    64  54  68 N12       30.05S
JANESVILLE     PTSUNNY   66  54  63 N15       30.04  HAZE
$$

WIZ051-052-058>065-066-070>072-071900-
SOUTHEAST WISCONSIN

CITY           SKY/WX    TMP DP  RH WIND       PRES   REMARKS
MILWAUKEE      PTSUNNY   65  49  56 N15G24    30.03S
6HR MIN TEMP:  58; 6HR MAX TEMP:  67;

WAUKESHA       PTSUNNY   64  48  55 N10G17    30.05S
MILWAUKEE/TIMM CLOUDY    64  48  55 NE8       30.04S
RACINE         SUNNY     66  50  56 N16G25    30.05S
6HR MIN TEMP:  57; 6HR MAX TEMP:  66;

BURLINGTON     PTSUNNY   66  51  59 N12G20    30.03S
6HR MIN TEMP:  55; 6HR MAX TEMP:  67;

KENOSHA        MOSUNNY   65  49  56 NE14G20   30.03S
6HR MIN TEMP:  57; 6HR MAX TEMP:  68;

FOND DU LAC    CLOUDY    66  48  52 N12       30.06S
6HR MIN TEMP:  60; 6HR MAX TEMP:  67;

SHEBOYGAN      CLOUDY    64  49  57 NE14      30.04S
6HR MIN TEMP:  58; 6HR MAX TEMP:  66;

WEST BEND      CLOUDY    64  46  52 N14       30.04S
JUNEAU         CLOUDY    64  50  61 N12G17    30.07S
6HR MIN TEMP:  58; 6HR MAX TEMP:  64;

$$

LSZ147-162-071900-
LAKE SUPERIOR

STATION/POSITION TIME  TEMP    WIND        PRES    WAVE
                       AIR SEA DIR/SP/G            HT/PER
                 (UTC) (F)     (DEG/KT/KT) (MB)    (FT/S)
W MID LAKE BUOY  1750   46 39  230/  8/ 10 1020.0R   1
DEVILS ISLAND    1800   60     220/  5/  7 1020.3F
PORT WING        1700   61     290/  3/  4 1021.0
SAXON HARBOR     1740   61        CALM     1020.7R
$$

LMZ867-665-643>646-071900-
LAKE MICHIGAN

STATION/POSITION TIME  TEMP    WIND        PRES    WAVE
                       AIR SEA DIR/SP/G            HT/PER
                 (UTC) (F)     (DEG/KT/KT) (MB)    (FT/S)
CHAMBERS ISLAND  1700   61     320/ 10/ 14 1017.3R


USA.gov is the U.S. government's official web portal to all federal, state and local government web resources and services.